Regional Weather Roundup
Issued by NWS Jackson, KY

Home | Current Version | Previous Version | Graphics & Text | Print | Product List | Glossary On
Versions: 1 2 3 4 5 6 7 8 9 10 11 12 13 14 15 16 17 18 19 20 21 22 23 24 25 26 27 28 29 30 31 32 33 34 35 36 37 38 39 40 41 42 43 44 45 46 47 48 49 50
000
ASUS43 KJKL 221010
RWRJKL

EAST KENTUCKY HOURLY WEATHER ROUNDUP
NATIONAL WEATHER SERVICE JACKSON KY
600 AM EDT FRI SEP 22 2017

NOTE: "FAIR" INDICATES FEW OR NO CLOUDS BELOW 12,000 FEET WITH
NO SIGNIFICANT WEATHER AND/OR OBSTRUCTIONS TO VISIBILITY.

* THESE REPORTS ARE NOT UNDER NWS QUALITY CONTROL AND MAY NOT
  REPORT WEATHER SUCH AS PRECIPITATION AND FOG.

KYZ079-080-083-085-087-088-110-112-115-119-120-221100
...EASTERN KENTUCKY...

CITY           SKY/WX    TMP DP  RH WIND       PRES   REMARKS
JACKSON        CLEAR     66  64  93 CALM      30.11R FOG
LONDON         CLEAR     63  61  93 CALM      30.10R
SOMERSET*      PTCLDY    61  61 100 CALM      30.10S FOG
MONTICELLO*    FOG       59  59 100 N9        30.10S VSB 1/2
WILLIAMSBURG*  CLOUDY    63  63 100 CALM      30.10R VSB<1/4
MIDDLESBORO*   FOG       63  63 100 CALM      30.12S VSB 1/2
HARLAN APT*    CLOUDY    63  61  94 CALM      30.13R VSB 3/4
PIKE CO APT*   FOG       63  63 100 CALM      30.12R VSB 1/4
BIG SANDY APT* FOG       65  65 100 CALM      30.11R VSB 1/4
MOREHEAD APT*  FOG       66  64  94 CALM      30.12R VSB<1/4
$$

KYZ035-036-041-042-044-050-067-078-099-221100
...CENTRAL KENTUCKY...

CITY           SKY/WX    TMP DP  RH WIND       PRES   REMARKS
MT STERLING*   CLEAR     63  61  94 CALM      30.12S FOG
FLEMING/MASON*   N/A     65  65 100 CALM      30.12R FOG
DANVILLE*      CLEAR     63  63 100 CALM      30.11R FOG
LEXINGTON      CLEAR     67  64  90 NE3       30.10R
FRANKFORT      CLEAR     66  62  87 CALM      30.08S
LOUISVILLE     PTCLDY    73  70  90 SE3       30.07R
LEBANON*         N/A     64  64 100 CALM      30.09R FOG
GLASGOW*       CLEAR    N/A N/A N/A E5        30.07R FOG
BOWLING GREEN  CLEAR     67  66  97 CALM      30.06S FOG
$$

KYZ091>093-OHZ055-061-077-WVZ005-015-034-035-042-221100
...SOUTHERN OHIO/WEST VIRGINIA...

CITY           SKY/WX    TMP DP  RH WIND       PRES   REMARKS
COVINGTON      PTCLDY    68  68 100 CALM      30.10R
COLUMBUS       MOCLDY    68  66  93 NE3       30.10R
DAYTON         CLEAR     69  66  90 SE6       30.11R
WILMINGTON     CLEAR     66  66 100 CALM      30.11R
HUNTINGTON     FOG       63  62  97 E3        30.09R VSB 1/4
CHARLESTON     FOG       63  62  97 CALM      30.10R VSB 1/4
PINEVILLE*     FOG       62  61  97 MISG      30.19R VSB 1/2
BECKLEY        CLEAR     59  57  93 CALM      30.16R FOG
BLUEFIELD      CLOUDY    62  60  93 SE3       30.18R
LOGAN CO APT*  FOG       63  63 100 CALM      30.12R VSB<1/4
$$

VAZ002-007-008-TNZ017-027-036-066-071-221100
...SOUTHWEST VIRGINIA/EAST TENNESSEE...

CITY           SKY/WX    TMP DP  RH WIND       PRES   REMARKS
WISE*          PTCLDY    64  64 100 CALM      30.19R
JONESVILLE*      N/A     59  59 100 CALM      30.14R FOG
ABINGDON*      CLEAR     64  64  97 E6        30.15R
BRISTOL        PTCLDY    60  60 100 CALM      30.13R FOG
MORRISTOWN*    SUNNY     66  64  94 CALM      30.08S
SEVIERVILLE*   SUNNY     61  61 100 CALM      30.08R
KNOXVILLE      CLEAR     66  63  90 CALM      30.07R
LAFOLLETTE*    FOG       63  63 100 CALM      30.13R VSB 0
OAK RIDGE      CLEAR     67  64  90 CALM      30.09R
CROSSVILLE     CLEAR     61  60  97 CALM      30.12R FOG
NASHVILLE      PTCLDY    68  67  96 CALM      30.05S FOG
$$

...KEY TO REMARKS...
VSB - VISIBILITY IN MILES
WCI - WIND CHILL INDEX
HX  - HEAT INDEX

$$



USA.gov is the U.S. government's official web portal to all federal, state and local government web resources and services.